THORAD DELTA 1 DEB, 19183

Orbit data source: Space-Track

THORAD DELTA 1 DEB, 19183 is space debris in LEO originally from a launch on Fri, 15 Nov 1974 UTC launched from the Air Force Western Test Range (AFWTR). Debris objects in space refer to the collection of defunct objects orbiting the Earth. Examples of debris include non-operational satellites, rocket bodies, and fragments generated from explosions, collisions, or faulty payload assembly.

Loading next visibility...
Identifier
19183, 1974-089FD
Orbit
LEO
Country
Flag of USUS
Related business
Manufacturer
Unknown
Mission
Spacecraft
Bus & Motor
Unknown
Mass
Unknown
Launch date (UTC)
1974-11-15 (52 years ago)
Launch vehicle
Unknown
Launch site
Air Force Western Test Range (AFWTR)
Object type
Payload
Rocket body
Debris
Shape & HBR
Unknown shape, 0.1 m
Radar Cross Section
Medium (>0.1 m² and <1 m²)

Expand to show TLE details & history
Last TLE update: 1 week ago

TLE from 1 week ago
0 THORAD DELTA 1 DEB
1 19183U 74089FD  26152.02160059  .00001301  00000-0  27178-2 0  9991
2 19183 103.5231 351.0123 0184418 317.7922 199.0599 13.28865548778588
Epoch: 2026-06-01T00:31Z
TLE epoch observation values (Epoch: 2026-06-01T00:31:06.290Z)
Latitude
23.14531°
Longitude
-80.40742°
Altitude
1,285.085 km
Speed
7.152 km/s
True Right ascension
11h 47m 32s
True Declination
23° 01' 47"
Sunlit
Object was in daylight at epoch
Visualization orbit readout
Latitude
Unknown
Longitude
Unknown
Altitude
Unknown
Speed
Unknown
Apparent Right ascension
Unknown
Apparent Declination
Unknown
Sunlit
N/A
Visualization observer readout
Local Sidereal Time
18:47:57
Azimuth
Unknown
Elevation
Unknown
Doppler factor
Unknown
Orbital elements
Apogee altitude
1,287.411 km
Perigee altitude
1,009.798 km
Semi-major axis
7,526.741 km
Eccentricity
0.01844
Inclination
103.5231°
RAAN
351.0123°
Arg. of periapsis
317.7922°
True anomaly
198.38454°
Mean anomaly
199.0599°
Eccentric anomaly
198.72077°
Mean motion
3.32378 °/min
Orbital period
108.31 mins
BSTAR
0.0027178
Loading maneuver chart data...
Computing Atmospheric mass density...

Documentation

Showing up to 5 results
|